Regional Weather Roundup
Issued by NWS

Home | Current Version | Previous Version | Text Only | Print | Product List | Glossary Off
Versions: 1 2 3 4 5 6 7 8 9 10 11 12 13 14 15 16 17 18 19 20 21 22 23 24 25 26 27 28 29 30 31 32 33 34 35 36 37 38 39 40 41 42 43 44 45 46 47 48 49 50

505
ASUS45 KPSR 170410
RWRAZ

ARIZONA HOURLY REGIONAL WEATHER ROUNDUP
NATIONAL WEATHER SERVICE PHOENIX AZ
900 PM MST FRI FEB 16 2018

NOTE: FAIR INDICATES FEW OR NO CLOUDS BELOW 12,000 FEET WITH NO
SIGNIFICANT WEATHER AND/OR OBSTRUCTIONS TO VISIBILITY.

AZZ001>003-036-170500-
NORTHWEST ARIZONA

CITY           SKY/WX    TMP DP  RH WIND       PRES   REMARKS
BULLHEAD CITY  CLEAR     59  16  18 NE12      30.13R
KINGMAN        CLEAR     39  26  59 CALM      30.16R
$$

AZZ004>008-015-016-018-170500-
NORTH CENTRAL ARIZONA

CITY           SKY/WX    TMP DP  RH WIND       PRES   REMARKS
GRAND CANYON   PTCLDY    26  22  84 CALM      30.17R
WILLIAMS       PTCLDY    30  25  80 S9        30.15R WCI  22
PRESCOTT       CLOUDY    43  32  65 S8        30.15R
FLAGSTAFF      MOCLDY    30  27  88 W3        30.17S
PAYSON         MOCLDY    45  39  81 CALM      30.15S
PAGE           CLEAR     37  21  52 SE5       30.14S WCI  33
$$

AZZ009>014-017-170500-
NORTHEAST ARIZONA

CITY           SKY/WX    TMP DP  RH WIND       PRES   REMARKS
WINSLOW        CLOUDY    36  20  52 SW8       30.16R WCI  30
SAINT JOHNS    CLOUDY    40  37  89 CALM      30.15R
WINDOW ROCK    MOCLDY    33  27  78 S5        30.15S WCI  29
SHOW LOW       CLOUDY    37  34  87 NE3       30.19R
$$

AZZ540-542>544-546-548-170500-
GREATER PHOENIX AREA

CITY           SKY/WX    TMP DP  RH WIND       PRES   REMARKS
PHOENIX        MOCLDY    62  47  57 CALM      30.09R
BUCKEYE        CLOUDY    57  48  72 CALM      30.11R
LUKE AFB       MOCLDY    59  47  63 SW9       30.08R
DEER VALLEY    MOCLDY    60  43  53 CALM      30.10R
SCOTTSDALE     CLOUDY    61  44  53 CALM      30.11R
MESA-GATEWAY   MOCLDY    59  52  77 S3        30.12R
CHANDLER       MOCLDY    59  50  72 S3        30.10R
$$

AZZ539-553-170500-
SOUTHWEST MARICOPA COUNTY AND PINAL COUNTY

CITY           SKY/WX    TMP DP  RH WIND       PRES   REMARKS
CASA GRANDE      N/A     57  52  83 CALM      30.12R
GILA BEND      FAIR      58  51  77 CALM      30.11R
$$

AZZ503-504-507>509-170500-
SOUTHEAST ARIZONA

CITY           SKY/WX    TMP DP  RH WIND       PRES   REMARKS
TUCSON         LGT RAIN  58  56  93 CALM      30.13R
DAVIS-MONTHAN  DRIZZLE   55  55 100 CALM      30.12S
NOGALES        LGT RAIN  52  52 100 CALM      30.15R
SIERRA VISTA   CLOUDY    50  48  92 W8        30.18R
DOUGLAS        CLOUDY    52  52 100 NW8       30.15R
SAFFORD        CLOUDY    53  53 100 S6        30.10S
$$

AZZ532-170500-
SOUTHWEST ARIZONA

CITY           SKY/WX    TMP DP  RH WIND       PRES   REMARKS
YUMA           CLEAR     63  24  22 N6        30.10R
$$

CAZ041-043-047-048-061-525>527-560>570-170500-
SOUTHERN CALIFORNIA

CITY           SKY/WX    TMP DP  RH WIND       PRES   REMARKS
DOWNTOWN L.A.  CLEAR     60  44  55 CALM      30.08S
L.A. AIRPORT   CLEAR     61  49  64 SW12      30.09S
SAN DIEGO      CLEAR     64  33  31 CALM      30.12R
BURBANK        CLEAR     61  38  42 N3        30.09R
ONTARIO        CLEAR     60  23  24 SW6       30.10R
RIVERSIDE      CLEAR     62  22  21 W6        30.10R
PALM SPRINGS   CLEAR     64  17  16 NW5       30.11S
EL CENTRO NAS  CLEAR     58  25  28 S3        30.12R
IMPERIAL       CLEAR     59  29  31 S3        30.09R
BLYTHE         CLEAR     56  16  20 N7        30.10R
NEEDLES        CLEAR     58  14  17 NW8       30.13R
$$

NVZ020-UTZ003-170500-
SOUTHERN NEVADA-UTAH

CITY           SKY/WX    TMP DP  RH WIND       PRES   REMARKS
LAS VEGAS      CLEAR     53  13  20 SW3       30.15R
SALT LAKE CITY CLOUDY    39  16  39 SW5       30.15R
$$

NMZ009-TXZ055-170500-
NEW MEXICO-WEST TEXAS

CITY           SKY/WX    TMP DP  RH WIND       PRES   REMARKS
ALBUQUERQUE    CLOUDY    43  37  79 S7        30.13R
EL PASO        CLOUDY    50  49  96 N12       30.12R
$$


........................KEY........................
SKY/WX - SKY CONDITION/WEATHER
TMP    - TEMPERATURE IN FAHRENHEIT
DP     - DEW POINT IN FAHRENHEIT
RH     - RELATIVE HUMIDITY IN PERCENT
WIND   - DIRECTION AND SPEED IN MILES PER HOUR (MPH)
VRB    - VARIABLE WIND DIRECTION
PRES   - MEAN SEA LEVEL PRESSURE IN INCHES OF MERCURY
         F - FALLING PRESSURE   R - RISING PRESSURE
         S - STEADY PRESSURE
VSB    - VISIBILITY IN MILES
HX     - HEAT INDEX IN FAHRENHEIT
WCI    - WIND CHILL INDEX IN FAHRENHEIT
TC     - TEMPERATURE IN CELSIUS WHICH IS ALSO KNOWN AS
         TEMPERATURE IN CENTIGRADE
AFB    - AIR FORCE BASE
         LUKE AFB IS LUKE AIR FORCE BASE
         DAVIS-MONTHAN IS DAVIS-MONTHAN AIR FORCE BASE
NAS    - NAVAL AIR STATION
         EL CENTRO NAS IS EL CENTRO NAVAL AIR STATION
N/A    - NOT AVAILABLE





USA.gov is the U.S. government's official web portal to all federal, state and local government web resources and services.